SCP
3 3 3 3 3 2 2 2 2 2 1 1 1 1 1 1 1 1 1 1 1 1 1 1 1 1 1 1 1 1 1 1 1 1 1 1 1 1 2 1 1 1 1
4 4 4 4 3 3 3 3 3 3 2 2 1 1 1 1 1 1 1 1 1 1 1 1 1 1 1 1 1 1 1 1 1 1 1 1 1 2 2 2 2 2 2
5 5 5 6 5 4 4 4 4 3 3 2 2 2 1 1 1 1 1 1 1 1 1 1 1 1 1 1 1 1 1 1 1 1 1 1 1 1 2 2 2 2 2
6 7 8 8 7 5 5 4 4 4 3 2 2 2 1 1 1 1 1 1 1 0 0 1 1 0 0 1 1 1 1 1 1 1 1 1 1 1 1 1 1 2 2
7 8 9 8 7 6 5 5 4 4 3 2 2 1 1 1 1 1 1 1 0 0 0 0 0 0 0 0 0 0 0 0 0 0 0 0 0 0 1 1 1 1 1
8 8 8 7 7 6 5 5 4 3 2 2 1 1 1 1 0 0 0 0 0 0 0 0 0 0 0 0 0 0 0 0 0 0 0 0 0 0 0 0 0 1 1
8 7 6 6 6 5 4 3 3 2 1 1 1 0 0 0 0 0 0 0 0 0 0 0 0 0 0 0 0 0 0 0 0 0 0 0 0 0 0 0 0 0 0
7 6 5 4 4 3 2 1 1 1 1 0 0 0 0 0 0 0 0 0 0 0 0 0 0 0 0 0 0 0 0 0 0 0 0 0 0 0 0 0 0 0 0
4 3 3 2 2 1 1 1 1 1 0 0 0 0 0 0 0 0 0 0 0 0 0 0 0 0 0 0 0 0 0 0 0 0 0 0 0 0 0 0 0 0 0
1 1 1 1 1 1 0 0 0 0 0 0 0 0 0 0 0 0 0 0 0 0 0 0 0 0 0 0 0 0 0 0 0 0 0 0 0 0 0 0 0 0 0
0 0 0 0 0 0 0 0 0 0 0 0 0 0 0 0 0 0 0 0 0 0 0 0 0 0 0 0 0 0 0 0 0 0 0 0 0 0 0 0 0 0 0
0 0 0 0 0 0 0 0 0 0 0 0 0 0 0 0 0 0 0 0 0 0 0 0 0 0 0 0 0 0 0 0 0 0 0 0 0 0 0 0 0 0 0
0 0 0 0 0 0 0 0 0 0 0 0 0 0 0 0 0 0 0 0 0 0 0 0 0 0 0 0 0 0 0 0 0 0 0 0 0 0 0 0 0 0 0
0 0 0 0 0 0 0 0 0 0 0 0 0 0 0 0 0 0 0 0 0 0 0 0 0 0 0 0 0 0 0 0 0 0 0 0 0 0 0 0 0 0 0
0 0 0 0 0 0 0 0 0 0 0 0 0 0 0 0 0 0 0 0 0 0 0 0 0 0 0 0 0 0 0 0 0 0 0 0 0 0 0 0 0 0 0
0 0 0 0 0 0 0 0 0 0 0 0 0 0 0 0 0 0 0 0 0 0 0 0 0 0 0 0 0 0 0 0 0 0 0 0 0 0 0 0 0 0 0
0 0 0 0 0 0 0 0 0 0 0 0 0 0 0 0 0 0 0 0 0 0 0 0 0 0 0 0 0 0 0 0 0 0 0 0 0 0 0 0 0 0 0
0 0 0 0 0 0 0 0 0 0 0 0 0 0 0 0 0 0 0 0 0 0 0 0 0 0 0 0 0 0 0 0 0 0 0 0 0 0 0 0 0 0 0
0 0 0 0 0 0 0 0 0 0 0 0 0 0 0 0 0 0 0 0 0 0 0 0 0 0 0 0 0 0 0 0 0 0 0 0 0 0 0 0 0 0 0
0 0 0 0 0 0 0 0 0 0 0 0 0 0 0 0 0 0 0 0 0 0 0 0 0 0 0 0 0 0 0 0 0 0 0 0 0 0 0 0 0 0 0
0 0 0 0 0 0 0 0 0 0 0 0 0 0 0 0 0 0 0 0 0 0 0 0 0 0 0 0 0 0 0 0 0 0 0 0 0 0 0 0 0 0 0
0 0 0 0 0 0 0 0 0 0 0 0 0 0 0 0 0 0 0 0 0 0 0 0 0 0 0 0 0 0 0 0 0 0 0 0 0 0 0 0 0 0 0
0 0 0 0 0 0 0 0 0 0 0 0 0 0 0 0 0 0 0 0 0 0 0 0 0 0 0 0 0 0 0 0 0 0 0 0 0 0 0 0 0 0 0
0 0 0 0 0 0 0 0 0 0 0 0 0 0 0 0 0 0 0 0 0 0 0 0 0 0 0 0 0 0 0 0 0 0 0 0 0 0 0 0 0 0 0
0 0 0 0 0 0 0 0 0 0 0 0 0 0 0 0 0 0 0 0 0 0 0 0 0 0 0 0 0 0 0 0 0 0 0 0 0 0 0 0 0 0 0
0 0 0 0 0 0 0 0 0 0 0 0 0 0 0 0 0 0 0 0 0 0 0 0 0 0 0 0 0 0 0 0 0 0 0 0 0 0 0 0 0 0 0
Wind_Speed
3 3 2 2 3 2 3 3 3 2 1 1 2 4 6 6 7 8 6 10 10 8 6 4 3 1 1 1 2 2 2 3 4 4 4 5 5 6 7 7 7 8 8
3 3 2 1 1 1 1 1 0 2 1 2 4 6 7 7 7 6 6 7 10 10 9 8 7 6 5 5 5 5 4 4 4 4 5 5 5 6 6 7 8 9 9
5 4 3 2 1 1 1 1 2 2 2 2 5 6 6 6 6 5 3 4 6 9 10 9 9 8 7 7 6 6 7 7 7 7 7 7 7 6 7 7 7 8 9
7 5 3 2 2 2 2 2 2 2 3 3 4 4 3 3 4 3 3 2 3 5 7 8 8 6 5 5 5 5 6 6 7 8 8 8 8 8 9 9 9 9 9
7 5 4 3 3 2 2 2 4 3 3 3 2 2 2 2 1 2 2 2 1 2 4 6 7 5 4 3 2 1 2 4 6 7 8 9 9 10 10 10 11 11 11
7 6 5 5 4 4 4 4 4 4 3 2 2 1 1 0 1 1 1 1 0 1 1 4 4 5 6 5 5 4 4 4 5 7 9 10 11 12 12 12 12 13 13
7 6 5 5 5 5 5 5 3 2 2 1 1 1 2 3 2 1 1 1 1 0 0 2 2 2 4 9 9 9 8 7 7 8 10 11 13 14 15 15 15 15 14
6 6 6 5 5 5 5 5 3 1 2 2 1 1 2 2 2 3 2 3 3 1 2 4 2 3 3 3 6 12 12 10 9 9 10 11 13 15 16 17 18 17 17
6 6 6 5 5 4 4 4 3 3 3 2 1 1 1 2 3 1 3 3 3 2 2 3 5 4 4 3 2 8 11 9 9 10 11 12 13 15 18 19 20 20 19
6 6 6 6 5 4 4 4 3 2 3 2 1 0 1 1 2 3 2 3 4 4 5 5 5 4 4 3 4 4 3 5 4 6 9 12 15 17 19 20 21 21 21
7 7 7 7 6 5 6 6 4 3 2 1 1 1 2 2 3 3 4 3 2 3 4 4 3 3 4 4 3 3 6 5 2 3 7 12 16 19 21 21 22 22 22
6 8 8 7 7 6 6 5 4 5 4 4 3 2 2 2 2 2 3 4 4 4 4 3 3 4 4 2 1 6 5 4 4 6 10 15 18 19 20 21 22 22 23
6 7 7 6 6 6 5 4 5 4 4 4 3 3 4 4 3 3 3 4 5 5 5 5 4 3 3 3 3 4 2 4 6 8 12 16 19 20 21 22 23 24 24
7 7 7 6 6 5 5 4 4 3 3 2 3 3 3 3 4 4 3 4 6 5 5 6 4 4 3 3 4 4 5 9 10 11 13 16 20 22 23 24 24 25 24
8 7 7 6 6 6 4 2 3 3 3 3 4 4 4 4 4 4 4 4 5 8 6 5 5 5 5 4 5 5 6 11 14 15 16 18 20 22 23 23 24 24 25
7 7 7 6 5 4 3 3 3 3 3 3 2 3 3 3 4 4 4 5 5 7 8 5 5 6 7 9 12 8 8 15 16 17 18 17 18 19 21 22 23 24 24
7 7 6 5 5 4 4 4 3 3 4 4 4 5 5 5 4 4 4 5 5 6 8 8 6 7 9 9 8 7 8 8 8 14 15 15 15 16 19 22 23 23 23
7 6 6 5 5 5 4 4 4 5 5 5 5 5 5 5 6 5 5 6 6 6 7 10 8 8 9 9 9 8 10 10 7 14 16 16 17 18 18 19 21 20 20
7 7 6 5 5 4 3 4 5 5 5 5 5 5 5 5 5 4 5 6 6 7 6 8 10 8 8 8 8 9 9 7 10 12 15 16 17 17 17 18 19 19 19
7 6 5 4 4 7 9 9 9 7 5 4 5 5 5 5 4 5 5 6 6 7 7 8 9 9 8 8 7 7 8 7 8 11 13 14 15 16 17 17 18 18 18
6 4 4 4 6 9 10 10 8 8 8 6 5 5 6 7 6 4 6 5 7 7 8 9 9 10 9 8 9 8 9 8 9 8 7 8 8 8 9 11 13 15 16
5 5 5 6 8 8 9 11 8 8 8 7 6 5 7 7 5 5 9 10 11 10 10 10 10 11 11 10 8 8 8 9 6 4 6 9 8 8 7 6 9 10 11
5 5 6 6 8 8 8 7 9 7 8 7 5 5 7 7 6 5 8 12 12 14 14 11 11 11 11 10 9 9 8 9 9 8 7 8 7 7 7 8 10 9 10
4 4 5 5 5 6 5 5 11 8 7 5 5 5 5 5 4 5 9 11 10 10 11 9 7 9 10 9 9 9 9 9 8 7 5 6 6 7 9 6 7 8 9
3 2 4 3 3 5 2 4 8 8 6 6 6 6 5 5 3 6 9 11 11 10 11 12 12 13 14 13 9 6 7 7 6 5 3 3 4 7 8 4 4 7 9
2 2 3 2 2 3 4 1 6 6 6 7 6 6 5 3 6 9 9 10 12 11 11 13 12 11 8 5 6 4 5 6 5 4 2 3 4 4 5 4 5 5 4
Wind_Direction
153 147 156 175 201 183 175 231 237 147 95 315 338 38 39 49 80 99 99 94 93 91 89 80 67 33 344 315 298 292 285 283 282 282 279 274 269 262 256 252 248 244 241
132 127 138 173 248 103 134 243 78 94 69 35 39 40 38 37 49 77 108 102 95 93 86 76 63 49 39 32 26 22 18 10 358 348 335 321 306 293 282 271 261 254 248
131 133 143 152 150 95 90 37 55 79 95 74 60 46 43 37 33 35 67 120 114 99 94 87 78 68 57 47 39 34 32 28 21 12 5 359 355 347 332 315 295 278 265
132 135 137 142 136 111 94 77 50 63 56 55 63 44 46 43 37 9 358 42 109 117 115 115 110 103 91 73 55 39 26 19 16 10 5 360 356 355 353 348 336 319 298
127 127 124 121 116 88 69 77 55 54 58 47 60 75 42 34 14 336 19 2 66 119 136 146 146 149 148 142 130 17 341 343 346 344 341 339 340 342 342 339 336 332 323
128 126 124 121 111 96 77 67 68 58 55 38 352 18 338 336 295 359 333 333 37 254 134 146 171 184 196 209 223 240 262 290 310 318 321 323 325 326 324 322 321 321 321
133 127 120 115 116 119 122 115 100 105 94 43 328 285 231 211 219 185 240 301 296 245 308 267 226 210 185 218 231 240 245 256 276 296 306 314 319 318 315 311 309 308 308
111 116 122 125 124 127 130 127 132 123 93 63 22 313 291 251 230 222 203 210 237 248 283 287 270 228 219 214 218 225 235 246 265 282 296 308 313 313 310 307 303 301 300
111 119 127 127 130 127 128 130 139 139 138 122 60 46 349 332 340 220 224 237 222 206 249 268 275 261 249 246 235 224 233 232 247 266 286 297 303 306 305 302 299 296 293
112 113 114 116 116 105 107 107 85 94 112 130 138 87 87 80 315 328 268 242 222 225 231 245 258 270 265 254 256 270 207 194 239 285 296 298 300 301 300 297 295 293 290
91 98 101 100 96 94 93 89 89 77 85 76 115 167 193 204 218 246 290 309 290 254 238 232 240 250 252 245 241 119 125 132 141 280 292 295 298 299 296 293 291 291 289
91 94 96 97 97 95 92 93 90 73 61 47 21 11 5 335 319 312 310 315 308 315 328 319 288 265 255 255 307 107 131 164 211 263 285 293 296 294 291 289 289 289 289
105 102 101 100 98 98 97 93 82 74 59 40 14 8 6 346 336 335 326 316 315 314 311 300 295 325 340 19 72 68 295 263 255 266 286 293 292 287 285 284 284 286 287
108 107 103 99 100 100 94 85 93 90 74 18 357 28 338 329 348 336 327 324 313 305 302 305 331 340 358 17 47 348 321 316 301 288 283 286 286 283 281 280 281 282 283
114 111 106 100 91 84 82 67 75 57 53 15 7 19 7 349 336 348 341 324 309 306 303 312 320 340 359 356 345 325 315 308 303 296 284 277 277 278 278 278 278 278 278
107 108 101 96 94 90 77 52 71 59 29 21 8 6 354 342 357 331 326 324 314 305 304 315 325 342 347 329 320 320 304 299 291 284 280 277 274 272 275 276 277 277 275
102 104 104 102 98 86 64 41 34 34 22 17 359 3 360 343 334 338 325 316 321 328 317 315 318 323 324 312 306 299 296 288 285 286 289 287 279 271 272 274 275 274 274
96 95 91 86 84 75 54 35 22 30 21 11 5 356 346 341 347 332 335 331 326 322 313 312 313 308 303 300 296 296 299 298 302 299 296 292 285 276 271 269 268 265 264
82 80 78 74 67 63 54 38 31 26 18 0 351 344 341 335 328 341 336 320 316 317 315 306 303 300 297 297 299 297 297 298 299 301 302 296 292 287 280 272 265 258 253
80 75 69 64 55 51 44 32 21 0 354 350 340 334 328 326 329 337 319 312 319 320 308 301 298 299 298 298 300 302 302 299 300 301 299 298 296 296 290 280 268 260 252
77 68 62 59 63 64 44 32 5 353 348 335 328 330 326 318 305 289 296 310 307 301 302 298 299 301 301 306 305 304 300 300 292 289 298 302 301 297 294 288 281 267 255
60 52 49 56 61 69 60 41 12 344 327 317 323 332 317 313 344 290 283 291 287 289 293 295 296 296 299 301 302 302 301 301 298 297 305 304 301 298 296 288 287 278 256
65 55 51 64 86 82 59 30 2 325 304 305 318 317 316 322 331 342 326 312 301 293 284 282 289 296 302 305 306 306 303 304 301 303 303 302 305 302 301 305 302 279 264
66 69 63 60 91 97 64 17 345 317 303 308 311 305 307 312 8 350 323 310 301 301 298 297 295 301 304 305 305 302 298 296 293 294 306 300 307 311 310 301 301 285 273
63 69 79 61 82 125 103 18 354 322 321 332 321 315 316 316 19 336 317 309 307 306 308 316 315 304 299 299 305 306 301 299 302 305 321 305 302 312 306 302 317 296 278
52 50 68 45 33 116 140 26 344 330 335 329 316 314 324 321 321 314 313 309 305 307 314 315 312 309 308 316 327 311 308 309 312 301 325 313 293 309 304 302 315 315 293